Location: Unspecified
(43.3830°N, 0.0000°E)
Time: 06:21:52
(UTC+00:00)

Explorer 7 - Pass Details

Date: 04 July 2019
Orbit: 485 x 680 km, 50.3° (Epoch: 18 July)

Event Time Altitude Azimuth Distance (km) Brightness Sun altitude
Rises 04:38:16 0° 241° (WSW) 2,587 9.5 1.2°
Reaches altitude 10° 04:40:24 10° 242° (WSW) 1,727 8.7 1.6°
Maximum altitude 04:44:19 85° 329° (NNW) 538 6.9 2.2°
Drops below altitude 10° 04:48:30 10° 60° (ENE) 1,840 12.3 2.8°
Sets 04:50:50 0° 61° (ENE) 2,773 14.0 3.2°
